Weather History for KIGQ - February, 2013

Change the Weather History Date:

Saturday, February 16, 2013

  Actual Average (KMDW) Record (KMDW)
Temperature  
Mean Temperature 18 °F 29 °F  
Max Temperature 22 °F 36 °F 53 °F (1981)
Min Temperature 13 °F 22 °F -7 °F (1958)
Degree Days  
Heating Degree Days 48 36  
Month to date heating degree days 607  
Since 1 July heating degree days 4103  
Cooling Degree Days 0 0  
Month to date cooling degree days 0  
Year to date cooling degree days 0  
Moisture  
Dew Point 4 °F    
Average Humidity 55    
Maximum Humidity 67    
Minimum Humidity 44    
Precipitation  
Precipitation 0.00 in 0.07 in 0.75 in (1986)
Month to date precipitation 0.99  
Year to date precipitation 3.05  
Sea Level Pressure  
Sea Level Pressure 30.15 in    
Wind  
Wind Speed 9 mph (NW)    
Max Wind Speed 15 mph    
Max Gust Speed 25 mph    
Visibility 10 miles    
Events      
T = Trace of Precipitation, MM = Missing Value Source: NWS Daily Summary

Daily Weather History Graph

Daily Weather History Graph

Search for Another Location

Airport or City:

Trip Planner

Search our weather history database for the weather conditions in past years. The results will help you decide how hot, cold, wet, or windy it might be!

Date:

Astronomy

Feb. 16, 2013 Rise Set
Actual Time 6:43 AM CST 5:25 PM CST
Civil Twilight 6:15 AM CST 5:53 PM CST
Nautical Twilight 5:42 AM CST 6:26 PM CST
Astronomical Twilight 5:10 AM CST 6:58 PM CST
Moon 9:50 AM CST (2/16) No Moon Set
Length of Visible Light 11h 38m
Length of Day
10h 41m
Waxing Crescent, 39% of the Moon is Illuminated
Feb 16
Waxing Crescent
Feb 17
First Quarter
Feb 25
Full
Mar 4
Last Quarter
Mar 11
New

Hourly Weather History & Observations

Time (CST) Temp. Windchill Dew Point Humidity Pressure Visibility Wind Dir Wind Speed Gust Speed Precip Events Conditions
12:15 AM 21.4 °F 11.9 °F 9.3 °F 60% 30.15 in 10.0 mi WNW 8.1 mph - N/A   Clear
12:35 AM 21.0 °F 12.4 °F 9.3 °F 61% 30.15 in 10.0 mi WNW 6.9 mph - N/A   Clear
12:55 AM 21.0 °F 9.9 °F 9.0 °F 60% 30.15 in 10.0 mi NW 10.4 mph - N/A   Clear
1:15 AM 20.3 °F 12.5 °F 9.1 °F 62% 30.15 in 10.0 mi NW 5.8 mph - N/A   Clear
1:35 AM 19.9 °F 7.9 °F 8.8 °F 62% 30.14 in 10.0 mi NW 11.5 mph - N/A   Clear
1:55 AM 19.8 °F 8.3 °F 8.6 °F 62% 30.15 in 10.0 mi NW 10.4 mph - N/A   Clear
2:15 AM 19.4 °F 7.9 °F 8.4 °F 62% 30.14 in 10.0 mi NW 10.4 mph - N/A   Clear
2:35 AM 19.0 °F 11.1 °F 8.6 °F 64% 30.14 in 10.0 mi NNW 5.8 mph - N/A   Clear
2:55 AM 18.7 °F 8.6 °F 8.4 °F 64% 30.13 in 10.0 mi NW 8.1 mph - N/A   Clear
3:15 AM 18.5 °F 7.5 °F 7.3 °F 62% 30.13 in 10.0 mi NNW 9.2 mph - N/A   Clear
3:35 AM 17.6 °F 8.2 °F 5.7 °F 60% 30.13 in 10.0 mi NW 6.9 mph 10.4 mph N/A   Clear
3:55 AM 17.2 °F 5.2 °F 6.1 °F 62% 30.13 in 10.0 mi NW 10.4 mph 16.1 mph N/A   Clear
4:15 AM 16.7 °F 5.3 °F 6.4 °F 64% 30.13 in 10.0 mi NW 9.2 mph - N/A   Clear
4:35 AM 16.5 °F 6.0 °F 5.5 °F 62% 30.13 in 10.0 mi NW 8.1 mph - N/A   Clear
4:55 AM 16.2 °F 6.5 °F 5.7 °F 64% 30.13 in 10.0 mi NW 6.9 mph - N/A   Clear
5:15 AM 15.6 °F 4.0 °F 5.9 °F 66% 30.14 in 10.0 mi NW 9.2 mph - N/A   Clear
5:35 AM 15.1 °F 4.2 °F 5.7 °F 66% 30.14 in 10.0 mi WNW 8.1 mph - N/A   Clear
5:55 AM 14.7 °F 4.8 °F 4.3 °F 63% 30.14 in 10.0 mi NW 6.9 mph - N/A   Clear
6:15 AM 14.5 °F 2.7 °F 4.1 °F 63% 30.14 in 10.0 mi NW 9.2 mph - N/A   Clear
6:35 AM 14.0 °F 2.0 °F 4.6 °F 66% 30.14 in 10.0 mi WNW 9.2 mph - N/A   Clear
6:55 AM 14.0 °F 2.0 °F 5.0 °F 67% 30.15 in 10.0 mi NW 9.2 mph - N/A   Clear
7:15 AM 14.2 °F 3.1 °F 4.5 °F 65% 30.15 in 10.0 mi WNW 8.1 mph - N/A   Clear
7:35 AM 14.7 °F 0.7 °F 4.1 °F 63% 30.16 in 10.0 mi NW 12.7 mph - N/A   Clear
7:55 AM 15.1 °F 5.2 °F 4.3 °F 62% 30.16 in 10.0 mi NW 6.9 mph - N/A   Clear
8:15 AM 15.8 °F 5.1 °F 3.7 °F 59% 30.16 in 10.0 mi NW 8.1 mph - N/A   Clear
8:35 AM 17.2 °F 8.9 °F 3.2 °F 54% 30.16 in 10.0 mi NNW 5.8 mph - N/A   Clear
8:55 AM 17.6 °F 5.7 °F 0.7 °F 48% 30.16 in 10.0 mi NNW 10.4 mph 16.1 mph N/A   Clear
9:15 AM 18.1 °F 4.4 °F -0.4 °F 44% 30.16 in 10.0 mi NNW 13.8 mph 18.4 mph N/A   Clear
9:35 AM 18.7 °F 5.7 °F 0.3 °F 45% 30.16 in 10.0 mi NNW 12.7 mph 25.3 mph N/A   Scattered Clouds
12:15 PM 20.5 °F 8.0 °F 2.1 °F 45% 30.14 in 10.0 mi NNW 12.7 mph 17.3 mph N/A   Overcast
12:35 PM 20.8 °F 8.4 °F 1.9 °F 44% 30.13 in 10.0 mi WNW 12.7 mph - N/A   Overcast
12:55 PM 22.1 °F 11.3 °F 3.0 °F 44% 30.13 in 10.0 mi NW 10.4 mph 17.3 mph N/A   Overcast
1:15 PM 21.2 °F 11.7 °F 3.0 °F 46% 30.12 in 10.0 mi WNW 8.1 mph 16.1 mph N/A   Overcast
1:35 PM 21.4 °F 8.0 °F 3.6 °F 46% 30.12 in 10.0 mi West 15.0 mph 19.6 mph N/A   Overcast
1:55 PM 21.2 °F 10.1 °F 3.9 °F 47% 30.12 in 10.0 mi WNW 10.4 mph 19.6 mph N/A   Overcast
2:15 PM 21.0 °F 11.4 °F 5.4 °F 51% 30.11 in 10.0 mi WNW 8.1 mph - N/A   Overcast
2:35 PM 21.2 °F 10.9 °F 5.5 °F 51% 30.11 in 10.0 mi WNW 9.2 mph - N/A   Overcast
2:55 PM 21.2 °F 9.5 °F 6.8 °F 54% 30.11 in 10.0 mi NNW 11.5 mph - N/A   Overcast
3:15 PM 21.2 °F 10.9 °F 6.1 °F 52% 30.11 in 10.0 mi West 9.2 mph - N/A   Overcast
3:35 PM 20.8 °F 11.2 °F 7.2 °F 56% 30.11 in 10.0 mi NW 8.1 mph - N/A   Overcast
3:55 PM 21.0 °F 10.6 °F 4.5 °F 49% 30.12 in 10.0 mi WNW 9.2 mph - N/A   Overcast
4:15 PM 21.0 °F 9.3 °F 3.6 °F 47% 30.12 in 10.0 mi WNW 11.5 mph 16.1 mph N/A   Overcast
4:35 PM 20.7 °F 9.5 °F 3.4 °F 47% 30.12 in 10.0 mi NW 10.4 mph - N/A   Overcast
4:55 PM 20.3 °F 9.0 °F 3.7 °F 49% 30.12 in 10.0 mi NW 10.4 mph 16.1 mph N/A   Overcast
5:15 PM 19.4 °F 7.9 °F 5.4 °F 55% 30.13 in 10.0 mi NNW 10.4 mph 16.1 mph N/A   Overcast
5:35 PM 19.0 °F 10.0 °F 4.3 °F 53% 30.13 in 10.0 mi NNW 6.9 mph - N/A   Overcast
5:55 PM 19.4 °F 7.9 °F 3.2 °F 49% 30.14 in 10.0 mi NW 10.4 mph 16.1 mph N/A   Overcast
6:15 PM 18.0 °F 6.1 °F 3.2 °F 53% 30.15 in 10.0 mi NNW 10.4 mph 16.1 mph N/A   Overcast
6:35 PM 18.0 °F 7.7 °F 2.3 °F 50% 30.16 in 10.0 mi WNW 8.1 mph - N/A   Overcast
6:55 PM 17.6 °F 8.2 °F 4.3 °F 56% 30.16 in 10.0 mi NNW 6.9 mph - N/A   Overcast
7:15 PM 17.2 °F 6.0 °F 1.6 °F 50% 30.17 in 10.0 mi North 9.2 mph - N/A   Overcast
7:35 PM 16.7 °F 5.3 °F 0.1 °F 48% 30.17 in 10.0 mi NNW 9.2 mph - N/A   Overcast
7:55 PM 15.8 °F 5.1 °F 0.5 °F 51% 30.17 in 10.0 mi NNW 8.1 mph - N/A   Scattered Clouds
8:15 PM 15.6 °F 7.0 °F 0.7 °F 52% 30.17 in 10.0 mi NW 5.8 mph - N/A   Clear
8:35 PM 15.8 °F 5.1 °F -0.0 °F 50% 30.17 in 10.0 mi NW 8.1 mph - N/A   Clear
8:55 PM 15.1 °F 5.2 °F 0.7 °F 53% 30.17 in 10.0 mi NW 6.9 mph - N/A   Clear
9:15 PM 15.1 °F 5.2 °F 0.3 °F 52% 30.18 in 10.0 mi NW 6.9 mph - N/A   Scattered Clouds
9:35 PM 14.9 °F 5.0 °F 0.3 °F 53% 30.18 in 10.0 mi NW 6.9 mph - N/A   Scattered Clouds
9:55 PM 14.7 °F 5.9 °F 0.5 °F 53% 30.18 in 10.0 mi NW 5.8 mph - N/A   Clear
10:15 PM 14.7 °F 3.8 °F 0.7 °F 54% 30.18 in 10.0 mi NW 8.1 mph - N/A   Clear
10:35 PM 14.4 °F 5.5 °F 0.7 °F 55% 30.18 in 10.0 mi WNW 5.8 mph - N/A   Clear
10:55 PM 14.0 °F 3.9 °F 0.5 °F 55% 30.18 in 10.0 mi WNW 6.9 mph - N/A   Clear
11:15 PM 14.0 °F 5.1 °F 0.3 °F 55% 30.17 in 10.0 mi WNW 5.8 mph - N/A   Clear
11:35 PM 13.6 °F 6.0 °F 0.7 °F 56% 30.18 in 10.0 mi NW 4.6 mph - N/A   Clear
11:55 PM 13.6 °F 6.0 °F 0.3 °F 55% 30.18 in 10.0 mi WNW 4.6 mph - N/A   Clear